Tracking 31027 objects as of 19-Jul-2025
HD Live streaming from Space Station
objects crossing your sky now

FENGYUN 1C DEB

Track FENGYUN 1C DEB now!
10-day predictions


NORAD ID: 33605
Int'l Code: 1999-025DCN
Perigee: 833.7 km
Apogee: 917.1 km
Inclination: 98.7 °
Period: 102.3 minutes
Semi major axis: 7246 km
RCS: 0.0013 m2 (small)
Launch date: May 10, 1999
Source: People's Republic of China (PRC)
Launch site: Taiyaun Space Center, China (TSC)

Note: This is SATELLITE DEBRIS
Your satellite tracking list
Your tracking list is empty




NASA's NSSDC Master Catalog

Two Line Element Set (TLE):
1 33605U 99025DCN 25195.75911867  .00000712  00000-0  44131-3 0  9994
2 33605  98.6935 200.3566 0057557 139.8943  37.2406 14.07418546576940
Source of the keplerian elements: AFSPC